[[{"header":{"parameterUnit":"m.s-1","parameterCategory":1,"la1":30.2991,"la2":30.254,"lo1":-89.0895,"lo2":-89.0444,"dy":0.0017,"dx":0.0017,"nx":28,"ny":28,"refTime":"2024-08-27T21:00:00:Z","depth":0,"parameterNumber":2,"parameterNumberName":"U-component_of_WINDS"},"data":[0,0,0,0,0,0,0,0,0,0,0,0,0,0,0,0,0,0,0,0,0,0,0,0,0,0,0,0,0,0,0,0,0,0,0,0,0,0,0,0,0,0,0,0,0,0,0,0,0,0,0,0,0,0,0,0,0,0,-2.65,-2.65,0,-2.6559,-2.6559,-2.656,-2.6478,-2.6475,-2.6472,-2.6469,-2.6532,-2.6536,-2.654,0,0,0,0,0,0,0,0,0,0,0,0,0,-2.6317,-2.6321,-2.6499,-2.65,-2.6501,-2.6558,-2.6559,-2.656,-2.6478,-2.6475,-2.6471,-2.6468,-2.653,-2.6536,-2.6541,0,0,0,0,0,0,0,0,0,0,0,0,0,-2.6388,-2.6322,-2.6499,-2.6467,-2.6465,-2.6558,-2.6559,-2.656,-2.6479,-2.6475,-2.647,-2.6466,-2.6529,-2.6535,-2.6542,-2.667,0,0,-2.6562,-2.6565,0,0,0,0,0,0,0,0,-2.6384,-2.6395,-2.6471,-2.6469,-2.6467,-2.6506,-2.6518,-2.6597,-2.648,-2.6474,-2.6469,-2.6464,-2.6527,-2.6533,-2.6554,-2.6673,-2.6676,-2.6562,-2.6566,-2.6569,-2.6571,0,0,0,0,0,0,0,-2.6379,-2.6392,-2.6523,-2.6472,-2.647,-2.645,-2.6455,-2.6532,-2.6524,-2.6474,-2.6468,-2.6476,-2.6525,-2.6548,-2.6555,-2.6677,-2.6562,-2.6568,-2.6572,-2.6575,-2.6905,-2.6909,0,0,0,0,0,0,-2.6378,-2.6388,-2.6521,-2.6525,-2.6414,-2.6457,-2.6463,-2.6498,-2.6523,-2.6523,-2.648,-2.6472,-2.6539,-2.6548,-2.6557,-2.671,-2.6569,-2.6575,-2.6579,-2.69,-2.6906,-2.6911,0,0,0,0,0,0,-2.6374,-2.6391,-2.6519,-2.6455,-2.647,-2.6465,-2.6505,-2.6502,-2.6524,-2.6528,-2.6526,-2.6505,-2.6536,-2.6548,-2.6643,-2.6711,-2.6578,-2.6584,-2.6894,-2.6902,-2.6908,-2.7017,0,0,0,0,0,0,-2.637,-2.639,-2.6439,-2.6457,-2.6473,-2.6603,-2.6509,-2.6506,-2.6536,-2.6526,-2.6551,-2.6551,-2.6533,-2.6633,-2.6649,-2.6718,-2.6589,-2.6888,-2.6898,-2.6906,-2.7007,-2.7027,-2.7043,0,0,0,0,0,-2.6363,-2.6467,-2.6441,-2.6458,-2.6534,-2.6607,-2.6617,-2.6594,-2.6542,-2.6591,-2.6593,-2.655,-2.6701,-2.6644,-2.6661,-2.6732,-2.6884,-2.6895,-2.6905,-2.6999,-2.7023,-2.7043,0,0,0,0,0,0,-2.6458,-2.6469,-2.6441,-2.6553,-2.658,-2.6593,-2.6655,-2.6621,-2.6663,-2.6653,-2.6623,-2.663,-2.6731,-2.6741,-2.6677,-2.6858,-2.6783,-2.6798,-2.6849,-2.6871,-2.6889,-2.6885,-2.6595,0,0,0,0,0,-2.6492,-2.655,-2.6556,-2.6655,-2.667,-2.666,-2.6691,-2.6671,-2.6698,-2.6709,-2.6718,-2.6746,-2.68,-2.6836,-2.6885,-2.7007,-2.7012,-2.7065,-2.7083,-2.7098,-2.7112,-2.7177,-2.7201,-2.6946,-2.6946,-2.6946,0,0,-2.6563,-2.6576,-2.6614,-2.6675,-2.6693,-2.6754,-2.667,-2.6739,-2.6784,-2.672,-2.681,-2.6818,-2.6847,-2.6956,-2.7005,-2.6967,-2.7183,-2.7112,-2.7124,-2.7129,-2.7191,-2.7215,-2.7237,-2.6954,-2.6952,-2.6951,0,0,-2.6723,-2.6739,-2.6823,-2.6843,-2.6871,-2.6864,-2.6884,-2.6903,-2.6905,-2.6995,-2.6948,-2.7002,-2.7094,-2.7117,-2.7141,-2.731,-2.7272,-2.7327,-2.7423,-2.7487,-2.7507,-2.7525,-2.7586,-2.7608,-2.734,-2.734,-2.734,0,-2.6808,-2.6898,-2.6871,-2.6943,-2.6971,-2.6914,-2.6999,-2.702,-2.7064,-2.7085,-2.7042,-2.7157,-2.7173,-2.7287,-2.7328,-2.7349,-2.7372,-2.7325,-2.7506,-2.7524,-2.754,-2.7598,-2.7621,-2.7347,-2.7346,-2.7345,-2.7345,0,-2.7002,-2.7065,-2.7129,-2.7172,-2.7207,-2.7286,-2.727,-2.7309,-2.7286,-2.7283,-2.7376,-2.7392,-2.7444,-2.7469,-2.7448,-2.7581,-2.7557,-2.7511,-2.7435,-2.7571,-2.7625,-2.7647,-2.7356,-2.7354,-2.7352,-2.735,0,0,-2.7225,-2.7251,-2.7275,-2.7294,-2.7321,-2.737,-2.7445,-2.7495,-2.7529,-2.7561,-2.7624,-2.7704,-2.7661,-2.7688,-2.7669,-2.7725,-2.7858,-2.7672,-2.7672,-2.7707,-2.8007,-2.8042,-2.8068,-2.7833,-2.7837,-2.784,-2.8004,0,-2.7386,-2.7517,-2.7494,-2.7621,-2.7679,-2.7626,-2.7691,-2.7715,-2.7715,-2.7764,-2.7763,-2.7821,-2.776,-2.7776,-2.7829,-2.7831,-2.7918,-2.7819,-2.7892,-2.7895,-2.7888,-2.8096,-2.8134,-2.8288,-2.8025,-2.8029,-2.8031,0,-2.7592,-2.7631,-2.7764,-2.7781,-2.7805,-2.7864,-2.7908,-2.7956,-2.7982,-2.7978,-2.8008,-2.7977,-2.8053,-2.7975,-2.808,-2.8012,-2.8041,-2.8046,-2.8052,-2.8059,-2.7973,-2.811,-2.8336,-2.836,-2.8064,-2.8061,-2.8059,0,-2.7743,-2.7828,-2.7919,-2.7936,-2.7959,-2.8002,-2.8014,-2.8035,-2.8066,-2.8105,-2.8125,-2.8172,-2.8198,-2.8236,-2.8219,-2.8164,-2.8327,-2.8248,-2.8326,-2.8327,-2.8364,-2.8362,-2.86,-2.8381,-2.8381,-2.838,-2.838,0,-2.7926,-2.801,-2.7987,-2.8043,-2.8135,-2.8107,-2.8199,-2.8204,-2.8224,-2.828,-2.8236,-2.829,-2.8264,-2.8316,-2.8304,-2.8393,-2.8404,-2.8403,-2.8399,-2.8408,-2.8409,-2.8428,-2.8417,-2.8386,-2.8385,-2.8384,-2.8383,0,-2.8111,-2.8099,-2.8194,-2.8207,-2.8212,-2.828,-2.8291,-2.8344,-2.8339,-2.8411,-2.8426,-2.8419,-2.8478,-2.8465,-2.8529,-2.8521,-2.8633,-2.8615,-2.8624,-2.862,-2.87,-2.8693,-2.8959,-2.8993,-2.8751,-2.8753,-2.8755,0,-2.823,-2.8293,-2.8312,-2.8346,-2.8361,-2.8417,-2.8448,-2.8423,-2.8458,-2.8492,-2.8541,-2.8596,-2.8638,-2.8735,-2.8737,-2.8786,-2.8769,-2.8859,-2.8777,-2.8783,-2.8772,-2.8769,-2.8775,-2.8876,-2.8879,-2.8881,-2.8883,0,-2.8441,-2.8432,-2.8479,-2.8525,-2.8564,-2.8598,-2.8629,-2.8659,-2.8637,-2.8678,-2.8737,-2.8771,-2.8836,-2.8891,-2.8937,-2.8949,-2.8913,-2.8908,-2.8929,-2.894,-2.8943,-2.8943,-2.867,-2.8903,-2.8901,-2.8899,-2.8898,-2.8898,-2.8597,-2.8651,-2.8673,-2.8727,-2.8747,-2.8777,-2.8826,-2.8828,-2.8876,-2.8928,-2.891,-2.8978,-2.9002,-2.9059,-2.9076,-2.9129,-2.9096,-2.9126,-2.9134,-2.9142,-2.9152,-2.8933,-2.9137,-2.9137,-2.9136,-2.9136,-2.9135,0,-2.8808,-2.8819,-2.8869,-2.8913,-2.8955,-2.8916,-2.8948,-2.8986,-2.9046,-2.9071,-2.9114,-2.9182,-2.9235,-2.9241,-2.9291,-2.9332,-2.9317,-2.9347,-2.9344,-2.9347,-2.9179,-2.9156,-2.9358,-2.9358,-2.9358,-2.9358,-2.9358,-2.9358,-2.8922,-2.9011,-2.9004,-2.9103,-2.9113,-2.9179,-2.9201,-2.9228,-2.9247,-2.9325,-2.9369,-2.9371,-2.9389,-2.944,-2.9487,-2.9487,-2.9508,-2.9544,-2.9538,-2.9381,-2.9359,-2.9338,-2.9317,-2.9549,-2.9549,-2.9702,-2.9703,-2.9705]},{"header":{"parameterUnit":"m.s-1","parameterCategory":1,"la1":30.2991,"la2":30.254,"lo1":-89.0895,"lo2":-89.0444,"dy":0.0017,"dx":0.0017,"nx":28,"ny":28,"refTime":"2024-08-27T21:00:00:Z","depth":0,"parameterNumber":3,"parameterNumberName":"V-component_of_WINDS"},"data":[0,0,0,0,0,0,0,0,0,0,0,0,0,0,0,0,0,0,0,0,0,0,0,0,0,0,0,0,0,0,0,0,0,0,0,0,0,0,0,0,0,0,0,0,0,0,0,0,0,0,0,0,0,0,0,0,0,0,-1.8108,-1.8108,0,-1.8081,-1.808,-1.808,-1.8063,-1.8063,-1.8063,-1.8063,-1.8033,-1.8033,-1.8032,0,0,0,0,0,0,0,0,0,0,0,0,0,-1.8144,-1.8143,-1.8108,-1.8108,-1.8108,-1.8081,-1.808,-1.808,-1.8063,-1.8063,-1.8063,-1.8063,-1.8034,-1.8033,-1.8032,0,0,0,0,0,0,0,0,0,0,0,0,0,-1.8123,-1.8143,-1.8108,-1.8096,-1.8095,-1.8081,-1.808,-1.808,-1.8063,-1.8063,-1.8063,-1.8063,-1.8034,-1.8033,-1.8032,-1.8028,0,0,-1.8029,-1.8028,0,0,0,0,0,0,0,0,-1.8125,-1.8122,-1.8098,-1.8097,-1.8095,-1.8075,-1.8082,-1.8062,-1.8063,-1.8075,-1.8063,-1.8063,-1.8047,-1.8045,-1.804,-1.8026,-1.8025,-1.8029,-1.8028,-1.8027,-1.8027,0,0,0,0,0,0,0,-1.8126,-1.8123,-1.8097,-1.8098,-1.8096,-1.8091,-1.8088,-1.8078,-1.8062,-1.8074,-1.8073,-1.807,-1.8047,-1.8041,-1.8039,-1.8025,-1.8029,-1.8028,-1.8027,-1.8027,-1.8002,-1.8002,0,0,0,0,0,0,-1.813,-1.8124,-1.8098,-1.8097,-1.811,-1.809,-1.8087,-1.8082,-1.8062,-1.8059,-1.807,-1.8069,-1.8043,-1.8041,-1.8038,-1.803,-1.8027,-1.8026,-1.8026,-1.8002,-1.8002,-1.8002,0,0,0,0,0,0,-1.813,-1.8127,-1.8099,-1.811,-1.8106,-1.809,-1.8084,-1.8081,-1.8076,-1.8059,-1.8056,-1.8068,-1.8043,-1.804,-1.803,-1.8029,-1.8026,-1.8025,-1.8002,-1.8002,-1.8002,-1.8015,0,0,0,0,0,0,-1.8132,-1.8128,-1.8127,-1.811,-1.8106,-1.8092,-1.8084,-1.8081,-1.8075,-1.8073,-1.8056,-1.8053,-1.8043,-1.8031,-1.8029,-1.8027,-1.8024,-1.8002,-1.8002,-1.8002,-1.8014,-1.8015,-1.8016,0,0,0,0,0,-1.8133,-1.8132,-1.8127,-1.8124,-1.8104,-1.8092,-1.809,-1.8078,-1.8075,-1.8073,-1.8061,-1.8054,-1.8029,-1.8031,-1.8027,-1.8026,-1.8002,-1.8002,-1.8002,-1.8014,-1.8015,-1.8016,0,0,0,0,0,0,-1.815,-1.813,-1.8124,-1.8118,-1.8107,-1.809,-1.8087,-1.808,-1.8069,-1.8068,-1.8053,-1.805,-1.804,-1.8032,-1.8034,-1.8019,-1.8015,-1.8014,-1.8025,-1.8026,-1.8026,-1.8028,-1.8023,0,0,0,0,0,-1.8153,-1.8145,-1.8128,-1.8124,-1.8119,-1.8104,-1.8099,-1.809,-1.8078,-1.8073,-1.8061,-1.8049,-1.8038,-1.8031,-1.8021,-1.8013,-1.8007,-1.801,-1.801,-1.8011,-1.8011,-1.8003,-1.8003,-1.8002,-1.8002,-1.8002,0,0,-1.8159,-1.8147,-1.8144,-1.8127,-1.8118,-1.8109,-1.81,-1.8092,-1.8085,-1.8072,-1.8061,-1.8051,-1.8037,-1.8027,-1.8022,-1.802,-1.8009,-1.8011,-1.8012,-1.8011,-1.8003,-1.8003,-1.8003,-1.8002,-1.8002,-1.8002,0,0,-1.8165,-1.8157,-1.8151,-1.8141,-1.8127,-1.8116,-1.8115,-1.8098,-1.8091,-1.808,-1.8069,-1.806,-1.8042,-1.8031,-1.8023,-1.8023,-1.8014,-1.8019,-1.8023,-1.8016,-1.8016,-1.8016,-1.8014,-1.8013,-1.8019,-1.8019,-1.8019,0,-1.8175,-1.8162,-1.815,-1.8141,-1.8134,-1.812,-1.8114,-1.8104,-1.8087,-1.8081,-1.8079,-1.8054,-1.8044,-1.803,-1.8029,-1.8024,-1.802,-1.8021,-1.8017,-1.8017,-1.8017,-1.8014,-1.8014,-1.802,-1.802,-1.8019,-1.8019,0,-1.8174,-1.8165,-1.8162,-1.8145,-1.8137,-1.813,-1.8114,-1.8107,-1.8099,-1.8088,-1.8075,-1.8061,-1.8047,-1.8043,-1.8035,-1.8027,-1.8025,-1.802,-1.8016,-1.8018,-1.8015,-1.8014,-1.802,-1.802,-1.802,-1.802,0,0,-1.8192,-1.8166,-1.8165,-1.8156,-1.8137,-1.8129,-1.812,-1.8106,-1.8099,-1.8086,-1.8077,-1.8061,-1.8055,-1.8046,-1.8037,-1.803,-1.8028,-1.8026,-1.8025,-1.8025,-1.8015,-1.8018,-1.8018,-1.8022,-1.8022,-1.8022,-1.8016,0,-1.8194,-1.8178,-1.8165,-1.8153,-1.8144,-1.8129,-1.8121,-1.8108,-1.8097,-1.8086,-1.8073,-1.8062,-1.8056,-1.805,-1.8043,-1.803,-1.8025,-1.803,-1.8012,-1.8011,-1.8015,-1.8017,-1.8021,-1.8016,-1.8015,-1.8015,-1.8015,0,-1.8196,-1.8184,-1.8171,-1.8151,-1.8146,-1.8139,-1.8123,-1.8113,-1.8097,-1.8089,-1.8078,-1.8067,-1.8055,-1.8051,-1.8033,-1.8036,-1.8027,-1.8019,-1.8019,-1.8016,-1.8013,-1.8013,-1.8015,-1.8013,-1.8013,-1.8013,-1.8013,0,-1.8208,-1.8188,-1.8177,-1.817,-1.8147,-1.8142,-1.8132,-1.8115,-1.8106,-1.8092,-1.8085,-1.807,-1.8061,-1.8048,-1.8032,-1.8032,-1.8014,-1.801,-1.8006,-1.8006,-1.8003,-1.8004,-1.8002,-1.7999,-1.7999,-1.7999,-1.7999,0,-1.8213,-1.8205,-1.8182,-1.8175,-1.8165,-1.8149,-1.8139,-1.8128,-1.8113,-1.8102,-1.8089,-1.8079,-1.8059,-1.8046,-1.8034,-1.8019,-1.8016,-1.8008,-1.8004,-1.8008,-1.8009,-1.8002,-1.8002,-1.7999,-1.7999,-1.7999,-1.7999,0,-1.8225,-1.821,-1.8196,-1.8175,-1.8169,-1.8162,-1.8143,-1.8135,-1.8122,-1.8109,-1.8104,-1.8084,-1.8068,-1.8051,-1.803,-1.8021,-1.8006,-1.8002,-1.8012,-1.801,-1.8006,-1.8006,-1.7999,-1.7997,-1.7997,-1.7997,-1.7997,0,-1.8228,-1.8222,-1.8199,-1.8191,-1.8181,-1.8168,-1.8159,-1.8142,-1.8132,-1.8111,-1.8105,-1.8087,-1.8073,-1.8047,-1.803,-1.8012,-1.8007,-1.8005,-1.8004,-1.8007,-1.8005,-1.8005,-1.8003,-1.8006,-1.8006,-1.8006,-1.8006,0,-1.8235,-1.8227,-1.8214,-1.8198,-1.8186,-1.8172,-1.8158,-1.8152,-1.8131,-1.8121,-1.8104,-1.8092,-1.8069,-1.8051,-1.8031,-1.8019,-1.8008,-1.8007,-1.8005,-1.8008,-1.8014,-1.8009,-1.8012,-1.8007,-1.8007,-1.8007,-1.8007,-1.8007,-1.8242,-1.8235,-1.8217,-1.8202,-1.8189,-1.8175,-1.8165,-1.8151,-1.8137,-1.8117,-1.8107,-1.8089,-1.807,-1.8042,-1.803,-1.8014,-1.8012,-1.8009,-1.8008,-1.8007,-1.8007,-1.8016,-1.8011,-1.8011,-1.8011,-1.8011,-1.8011,0,-1.8247,-1.8234,-1.8221,-1.82,-1.8188,-1.8179,-1.8162,-1.8151,-1.8136,-1.812,-1.8105,-1.8084,-1.8066,-1.8046,-1.8026,-1.8017,-1.8012,-1.8013,-1.8013,-1.8009,-1.8012,-1.8015,-1.8017,-1.8017,-1.8017,-1.8017,-1.8017,-1.8017,-1.8248,-1.8234,-1.8224,-1.8202,-1.8189,-1.8172,-1.8162,-1.8149,-1.8135,-1.8112,-1.8097,-1.8084,-1.8065,-1.8044,-1.8026,-1.802,-1.8013,-1.8015,-1.8007,-1.801,-1.801,-1.8009,-1.8012,-1.8013,-1.8013,-1.8006,-1.8006,-1.8006]}]]